Weather History for Glendive, MT

Change the Weather History Date:

Sunday, November 28, 2010

  Actual Average Record
Temperature  
Mean Temperature 24 °F -  
Max Temperature 28 °F 34 °F 62 °F (2002)
Min Temperature 19 °F 17 °F -4 °F (2006)
Degree Days  
Heating Degree Days 42    
Moisture  
Dew Point 21 °F    
Average Humidity 83    
Maximum Humidity 93    
Minimum Humidity 74    
Precipitation  
Precipitation 0.00 in - - ()
Sea Level Pressure  
Sea Level Pressure 29.55 in    
Wind  
Wind Speed 10 mph (NNE)    
Max Wind Speed 22 mph    
Max Gust Speed 28 mph    
Visibility 8 miles    
Events      
Averages and records for this station are not official NWS values.
T = Trace of Precipitation, MM = Missing Value Source: NWS Daily Summary

Daily Weather History Graph

Daily Weather History Graph

Search for Another Location

Airport:

Trip Planner

Search our weather history database for the weather conditions in past years. The results will help you decide how hot, cold, wet, or windy it might be!

Date:

Astronomy

Nov. 28, 2010 Rise Set
Actual Time 7:21 AM MST 4:13 PM MST
Civil Twilight 6:46 AM MST 4:47 PM MST
Nautical Twilight 6:08 AM MST 5:25 PM MST
Astronomical Twilight 5:31 AM MST 6:02 PM MST
Moon No Moon Rise 12:13 PM MST (11/28)
Length of Visible Light 10h 01m
Length of Day
8h 52m
Waning Gibbous, 51% of the Moon is Illuminated
Nov 28
Waning Gibbous
Nov 28
Last Quarter
Dec 5
New
Dec 13
First Quarter
Dec 21
Full

Hourly Weather History & Observations

Time (MST) Temp. Windchill Dew Point Humidity Pressure Visibility Wind Dir Wind Speed Gust Speed Precip Events Conditions
12:15 AM 28.4 °F 23.3 °F 21.2 °F 74% 29.53 in 10.0 mi NE 4.6 mph - N/A   Partly Cloudy
12:35 AM 26.6 °F 21.2 °F 21.2 °F 80% 29.52 in 10.0 mi NE 4.6 mph - N/A   Scattered Clouds
12:55 AM 26.6 °F 19.1 °F 21.2 °F 80% 29.52 in 10.0 mi NNE 6.9 mph - N/A   Mostly Cloudy
1:15 AM 26.6 °F 19.1 °F 21.2 °F 80% 29.51 in 10.0 mi NNE 6.9 mph - N/A   Scattered Clouds
1:35 AM 24.8 °F 16.9 °F 19.4 °F 80% 29.52 in 10.0 mi North 6.9 mph - N/A   Clear
1:55 AM 24.8 °F 14.6 °F 21.2 °F 86% 29.53 in 10.0 mi North 10.4 mph - N/A   Clear
2:15 AM 26.6 °F 16.2 °F 21.2 °F 80% 29.53 in 10.0 mi NNW 11.5 mph - N/A   Scattered Clouds
2:35 AM 24.8 °F 14.6 °F 19.4 °F 80% 29.53 in 10.0 mi NNW 10.4 mph - N/A   Overcast
2:55 AM 23.0 °F 14.7 °F 17.6 °F 80% 29.52 in 10.0 mi North 6.9 mph - N/A   Scattered Clouds
3:15 AM 23.0 °F 17.0 °F 17.6 °F 80% 29.52 in 10.0 mi North 4.6 mph - N/A   Clear
3:35 AM 21.2 °F 13.6 °F 15.8 °F 80% 29.52 in 10.0 mi NNE 5.8 mph - N/A   Clear
3:55 AM 21.2 °F 11.7 °F 17.6 °F 86% 29.52 in 10.0 mi NE 8.1 mph - N/A   Clear
4:15 AM 19.4 °F 8.6 °F 15.8 °F 86% 29.52 in 10.0 mi NE 9.2 mph - N/A   Mostly Cloudy
4:35 AM 19.4 °F 10.4 °F 14.0 °F 80% 29.52 in 10.0 mi NNE 6.9 mph - N/A   Scattered Clouds
4:55 AM 21.2 °F 11.7 °F 19.4 °F 93% 29.52 in 10.0 mi NE 8.1 mph - N/A   Clear
5:15 AM 21.2 °F 11.7 °F 17.6 °F 86% 29.53 in 10.0 mi NE 8.1 mph - N/A   Clear
5:35 AM 21.2 °F 9.5 °F 17.6 °F 86% 29.52 in 10.0 mi NE 11.5 mph - N/A   Scattered Clouds
5:55 AM 21.2 °F 10.9 °F 17.6 °F 86% 29.52 in 10.0 mi NE 9.2 mph - N/A   Overcast
6:15 AM 23.0 °F 14.7 °F 19.4 °F 86% 29.53 in 10.0 mi NE 6.9 mph - N/A   Overcast
6:35 AM 23.0 °F 14.7 °F 19.4 °F 86% 29.53 in 10.0 mi NNE 6.9 mph - N/A   Mostly Cloudy
6:55 AM 23.0 °F 14.7 °F 21.2 °F 93% 29.54 in 10.0 mi NNE 6.9 mph - N/A   Partly Cloudy
7:15 AM 23.0 °F 12.4 °F 21.2 °F 93% 29.53 in 10.0 mi NNE 10.4 mph - N/A   Partly Cloudy
7:35 AM 24.8 °F 16.1 °F 21.2 °F 86% 29.54 in 10.0 mi North 8.1 mph - N/A   Partly Cloudy
7:55 AM 24.8 °F 15.3 °F 19.4 °F 80% 29.54 in 9.0 mi NNE 9.2 mph - N/A   Partly Cloudy
8:15 AM 24.8 °F 14.6 °F 21.2 °F 86% 29.53 in 9.0 mi NNE 10.4 mph - N/A   Mostly Cloudy
8:35 AM 24.8 °F 16.9 °F 21.2 °F 86% 29.53 in 9.0 mi NNE 6.9 mph - N/A   Scattered Clouds
8:55 AM 24.8 °F 14.0 °F 21.2 °F 86% 29.53 in 9.0 mi NNE 11.5 mph 16.1 mph N/A   Clear
9:15 AM 26.6 °F 14.3 °F 21.2 °F 80% 29.53 in 10.0 mi NNE 16.1 mph - N/A   Clear
9:35 AM 26.6 °F 16.2 °F 21.2 °F 80% 29.54 in 10.0 mi NNE 11.5 mph - N/A   Clear
9:55 AM 26.6 °F 15.7 °F 21.2 °F 80% 29.55 in 10.0 mi NNE 12.7 mph - N/A   Scattered Clouds
10:15 AM 26.6 °F 14.7 °F 23.0 °F 86% 29.55 in 10.0 mi NNE 15.0 mph - N/A   Mostly Cloudy
10:35 AM 26.6 °F 15.7 °F 23.0 °F 86% 29.56 in 10.0 mi NNE 12.7 mph - N/A   Overcast
10:55 AM 28.4 °F 17.0 °F 23.0 °F 80% 29.56 in 10.0 mi NNE 15.0 mph - N/A   Overcast
11:15 AM 28.4 °F 17.5 °F 23.0 °F 80% 29.55 in 10.0 mi NNE 13.8 mph - N/A   Overcast
11:35 AM 28.4 °F 19.1 °F 23.0 °F 80% 29.55 in 10.0 mi North 10.4 mph - N/A   Overcast
11:55 AM 28.4 °F 19.1 °F 23.0 °F 80% 29.55 in 10.0 mi North 10.4 mph - N/A   Overcast
12:15 PM 28.4 °F 17.5 °F 23.0 °F 80% 29.55 in 10.0 mi North 13.8 mph - N/A   Mostly Cloudy
12:35 PM 28.4 °F 16.2 °F 23.0 °F 80% 29.54 in 10.0 mi North 17.3 mph - N/A   Overcast
12:55 PM 28.4 °F 15.8 °F 23.0 °F 80% 29.55 in 10.0 mi North 18.4 mph - N/A   Overcast
1:15 PM 28.4 °F 15.4 °F 21.2 °F 74% 29.55 in 10.0 mi North 19.6 mph 24.2 mph N/A   Overcast
1:35 PM 28.4 °F 15.8 °F 21.2 °F 74% 29.55 in 10.0 mi North 18.4 mph - N/A   Overcast
1:55 PM 28.4 °F 15.4 °F 23.0 °F 80% 29.56 in 10.0 mi North 19.6 mph - N/A   Overcast
2:15 PM 26.6 °F 13.8 °F 21.2 °F 80% 29.58 in 10.0 mi North 17.3 mph - N/A   Overcast
2:35 PM 26.6 °F 12.7 °F 21.2 °F 80% 29.59 in 5.0 mi North 20.7 mph 25.3 mph N/A   Mostly Cloudy
2:55 PM 24.8 °F 11.1 °F 21.2 °F 86% 29.59 in 1.0 mi North 18.4 mph - N/A   Overcast
3:15 PM 24.8 °F 11.5 °F 21.2 °F 86% 29.60 in 0.8 mi North 17.3 mph - N/A   Overcast
3:35 PM 24.8 °F 10.7 °F 21.2 °F 86% 29.61 in 0.5 mi North 19.6 mph - N/A   Overcast
3:55 PM 24.8 °F 10.7 °F 21.2 °F 86% 29.61 in 0.8 mi North 19.6 mph - N/A   Overcast
4:15 PM 24.8 °F 10.0 °F 21.2 °F 86% 29.62 in 1.0 mi North 21.9 mph - N/A   Overcast
4:35 PM 24.8 °F 10.0 °F 21.2 °F 86% 29.64 in 1.2 mi North 21.9 mph - N/A   Overcast
4:55 PM 24.8 °F 10.0 °F 21.2 °F 86% 29.65 in 1.8 mi NNW 21.9 mph 27.6 mph N/A   Overcast
5:15 PM 23.0 °F 8.7 °F 21.2 °F 93% 29.67 in 1.2 mi North 18.4 mph 27.6 mph N/A   Overcast
5:35 PM 23.0 °F 7.6 °F 19.4 °F 86% 29.68 in 1.0 mi North 21.9 mph 25.3 mph N/A   Overcast
5:55 PM 23.0 °F 9.2 °F 19.4 °F 86% 29.69 in 1.0 mi North 17.3 mph - N/A   Overcast
6:15 PM 23.0 °F 8.7 °F 19.4 °F 86% 29.69 in 1.2 mi North 18.4 mph - N/A   Overcast
6:35 PM 23.0 °F 9.6 °F 19.4 °F 86% 29.70 in 1.2 mi North 16.1 mph - N/A   Overcast
6:55 PM 23.0 °F 9.6 °F 19.4 °F 86% 29.71 in 1.8 mi North 16.1 mph - N/A   Overcast
7:15 PM 23.0 °F 8.3 °F 19.4 °F 86% 29.71 in 1.5 mi North 19.6 mph - N/A   Overcast
7:35 PM 23.0 °F 8.3 °F 19.4 °F 86% 29.71 in 1.5 mi North 19.6 mph - N/A   Overcast
7:55 PM 24.8 °F 10.7 °F 21.2 °F 86% 29.72 in 1.8 mi North 19.6 mph - N/A   Overcast
8:15 PM 24.8 °F 10.7 °F 21.2 °F 86% 29.72 in 2.5 mi North 19.6 mph - N/A   Overcast
8:35 PM 24.8 °F 9.3 °F 21.2 °F 86% 29.72 in 2.5 mi North 24.2 mph 29.9 mph N/A   Overcast
8:55 PM 24.8 °F 9.0 °F 21.2 °F 86% 29.73 in 2.0 mi NNW 25.3 mph 33.4 mph N/A   Overcast
9:15 PM 24.8 °F 9.0 °F 19.4 °F 80% 29.74 in 2.0 mi North 25.3 mph 35.7 mph N/A   Overcast
9:35 PM 24.8 °F 9.3 °F 19.4 °F 80% 29.74 in 2.5 mi NNW 24.2 mph 29.9 mph N/A   Overcast
9:55 PM 24.8 °F 9.3 °F 19.4 °F 80% 29.75 in 2.5 mi NNW 24.2 mph 28.8 mph N/A   Overcast
10:15 PM 23.0 °F 6.0 °F 19.4 °F 86% 29.76 in 2.5 mi NNW 27.6 mph - N/A   Overcast
10:35 PM 23.0 °F 5.7 °F 19.4 °F 86% 29.77 in 1.8 mi NNW 28.8 mph 32.2 mph N/A   Overcast
10:55 PM 21.2 °F 3.5 °F 17.6 °F 86% 29.77 in 1.8 mi NNW 27.6 mph 32.2 mph N/A   Overcast
11:15 PM 21.2 °F 3.9 °F 17.6 °F 86% 29.78 in 1.8 mi NNW 26.5 mph - N/A   Overcast
11:35 PM 21.2 °F 2.4 °F 15.8 °F 80% 29.79 in 2.0 mi NNW 32.2 mph 36.8 mph N/A   Overcast
11:55 PM 19.4 °F 1.8 °F 17.6 °F 93% 29.80 in 3.0 mi North 25.3 mph - N/A   Overcast